Other Public Products
Issued by NWS Grand Forks, ND

Home | Current Version | Previous Version | Graphics & Text | Print | Product List | Glossary On
Versions: 1 2 3 4 5 6 7 8 9 10 11 12 13 14 15 16 17 18 19 20 21 22 23 24 25 26 27 28 29 30 31 32 33 34 35 36 37 38 39 40 41 42 43 44 45 46 47 48 49 50
000
FPUS83 KFGF 230131
OPUFGF
PRAIRIE TO PINES WEATHER ROUNDUP
NATIONAL WEATHER SERVICE EASTERN NORTH DAKOTA/GRAND FORKS ND
800 PM CDT FRI MAY 22 2015

 **SATELLITE DATA USED TO AUGMENT SKY COVER AT AUTOMATED STATIONS**
 *****  WEATHER ACROSS EASTERN NORTH DAKOTA  *****

CITY           SKY/WX    TMP DP  RH WIND       PRES   REMARKS
GRAND FORKS    PTCLDY    72  42  34 S8        30.10S
GRAND FORKS AF CLEAR     73  41  32 S6        30.10F
GRAND CITY NWS   N/A     70 N/A N/A S6          N/A
BUXTON           N/A     72  39  29 SE7         N/A
DEVILS LAKE    SUNNY     70  34  26 S9        30.10S
FARGO          CLEAR     72  39  30 SE7       30.12S
WAHPETON ARPT  PTCLDY    70  32  24 SE7       30.13S
$$

 *****  WEATHER ACROSS CENTRAL AND WESTERN NORTH DAKOTA  *****

CITY           SKY/WX    TMP DP  RH WIND       PRES   REMARKS
JAMESTOWN      SUNNY     68  39  34 SE8       30.10S
BISMARCK       MOSUNNY   71  38  29 S13       30.07S
MINOT          MOSUNNY   73  32  22 S9        30.06S
MINOT AFB      SUNNY     76  34  21 S12       30.05S
GARRISON         N/A     71  37  28 SE10      30.07S
WILLISTON      MOSUNNY   73  34  23 SE13      30.03S
DICKINSON      MOSUNNY   66  33  29 SE17G28   30.04S
HETTINGER      PTSUNNY   64  35  34 SE20      30.06S
$$

 *****  OTHER OBSERVATIONS NORTHEAST NORTH DAKOTA  *****

CITY           SKY/WX    TMP DP  RH WIND       PRES   REMARKS
WALHALLA       FAIR      73  36  25 SW9       30.08S
LANGDON        FAIR      72  34  25 SW12      30.12S
CAVALIER       FAIR      73  39  29 SW5       30.08S
GRAFTON        FAIR      70  48  46 S6        30.10S
CANDO          FAIR      72  34  25 S9        30.10S
FORT TOTTEN      N/A     72  28  19 S8        29.95S
ROLLA          FAIR      72  30  21 S9        30.11S
RUGBY          NOT AVBL
 ***** THE ABOVE OBSERVATIONS ARE NON NWS ARE NOT QUALITY
        CONTROLLED AND MAY MIS-REPORT RAIN FOR SNOW...
$$

 *****  OTHER OBSERVATIONS SOUTHEAST NORTH DAKOTA *****

CITY           SKY/WX    TMP DP  RH WIND       PRES   REMARKS
COOPERSTOWN    NOT AVBL
VALLEY CITY    FAIR      68  32  26 S8        30.12S
OAKES            N/A     68  39  34 E10       30.10S
GWINNER        NOT AVBL
BUFFALO        NOT AVBL
WYNDMERE         N/A     73  27  17 S5          N/A
 ***** THE ABOVE OBSERVATIONS ARE NON NWS ARE NOT QUALITY
       CONTROLLED AND MAY MIS-REPORT RAIN FOR SNOW...
$$

  *****  WEATHER ACROSS NORTHERN MINNESOTA  *****

CITY           SKY/WX    TMP DP  RH WIND       PRES   REMARKS
FLAG ISLAND    NOT AVBL
WARROAD        CLEAR     70  45  40 SW7       30.09S
ROSEAU         CLEAR     72  45  37 SW7       30.09S
HALLOCK        PTCLDY    72  43  35 SW9       30.08S
THF RVR FALLS  CLEAR     72  37  28 SW8       30.12S
HALSTAD          N/A     72  34  25 S6          N/A
FOSSTON        CLEAR     72  34  25 CALM      30.14S
BAUDETTE       CLEAR     72  38  29 W9        30.09S
WASKISH        CLEAR     66  45  45 CALM      30.12S
CROOKSTON      CLEAR     72  39  30 SW6       30.12S
$$
  *****  WEATHER ACROSS CENTRAL AND WEST MINNESOTA  *****

CITY           SKY/WX    TMP DP  RH WIND       PRES   REMARKS
BEMIDJI        CLEAR     70  38  31 CALM      30.13S
PARK RAPIDS    CLEAR     70  38  31 SW7       30.14S
WADENA         CLEAR     66  37  34 S6        30.16S
DETROIT LAKES  CLEAR     68  37  32 SW6       30.16F
MOORHEAD       CLEAR     72  39  30 SE5       30.13S
FERGUS FALLS   CLEAR     70  36  28 SE7       30.14S
ELBOW LAKE     FAIR      65  39  38 S5        30.15R
MORRIS MN      PTCLDY    70  34  26 SE5       30.14S
STAPLES        CLEAR     66  36  32 SW3       30.16S
WHEATON        PTCLDY    66  41  39 SE5       30.15S
$$
  *****  WEATHER ELSEWHERE ACROSS MINNESOTA  *****

CITY           SKY/WX    TMP DP  RH WIND       PRES   REMARKS
DULUTH         CLEAR     67  36  31 S6        30.15F
INTRNTL FALLS  PTCLDY    71  37  28 SW6       30.09F
ELY            CLEAR     68  30  24 CALM      30.12S
CLOQUET        CLEAR     68  28  22 S3        30.16S
BRAINERD       CLEAR     68  38  33 S6        30.16S
HIBBING        CLEAR     70  32  24 SW6       30.14S
ALEXANDRIA     CLEAR     68  34  28 S7        30.17S
SAINT CLOUD    CLEAR     68  40  35 CALM      30.17S
MINNEAPOLIS    MOCLDY    73  32  22 VRB5      30.18S
$$

  *****  WEATHER ACROSS SOUTH DAKOTA  *****

CITY           SKY/WX    TMP DP  RH WIND       PRES   REMARKS
SIOUX FALLS    CLOUDY    61  42  49 SW16G26   30.18R
BROOKINGS      CLOUDY    64  39  39 SW16G22   30.16R
WATERTOWN      CLOUDY    68  40  35 S6        30.12S
HURON          CLOUDY    63  42  46 SW23      30.15R
SISSETON         N/A     69  35  28 E7        30.11F
ABERDEEN       CLOUDY    73  36  25 S13       30.09S
MITCHELL       CLOUDY    60  43  53 SW14G23   30.18R
PIERRE         CLOUDY    61  43  51 S20       30.11R
MOBRIDGE       PTSUNNY   68  39  34 S13       30.07R
RAPID CITY     CLOUDY    54  39  57 S14       30.07S
$$

  *****  SOME WEATHER IN NEARBY STATES *****

CITY           SKY/WX    TMP DP  RH WIND       PRES   REMARKS
GLASGOW MT     CLOUDY    71  39  31 SE16      29.96S
GREAT FALLS MT PTSUNNY   63  46  54 E14       29.92S
CHEYENNE WY    CLOUDY    47  42  83 SE13      30.03R
SCOTTSBLUFF NE CLOUDY    48  46  93 SE14      30.05R
OMAHA NE       CLOUDY    65  43  44 SE8       30.17F
DES MOINES IA  CLOUDY    68  44  42 SW14      30.20R
DAVENPORT IA   CLOUDY    72  36  26 CALM      30.20S
CHICAGO IL     CLOUDY    55  27  34 E8        30.26R
EAU CLAIRE WI  PTCLDY    69  32  25 CALM      30.19S
LA CROSSE WI   CLOUDY    71  38  29 CALM      30.19R
$$

  *****  SOME NATIONAL WEATHER *****

CITY           SKY/WX    TMP DP  RH WIND       PRES   REMARKS
LA GUARDIA NY  MOCLDY    67  42  40 NW13      30.02R
RALEIGH NC     PTCLDY    59  49  69 CALM      30.23R
ATLANTA GA     PTCLDY    74  49  41 CALM      30.22R
NEW ORLEANS LA PTCLDY    79  66  64 SE3       30.14R
OKLAHOMA CITY  CLOUDY    55  53  93 SE9       30.13S
ALBUQUERQUE NM MOSUNNY   73  34  23 S28G38    29.90F
SALT LAKE CITY CLOUDY    62  39  42 E7        29.86S
LOS ANGELES CA PTSUNNY   62  55  77 SW13      30.03R
BOISE ID       CLOUDY    71  46  40 NE8       29.80F
SEATTLE WA     PTSUNNY   60  50  69 S6        30.03R
$$

*** WEATHER ACROSS MANITOBA...SASKATCHEWAN AND ONTARIO ***
                ***ONTARIO***

CITY           SKY/WX    TMP DP  RH WIND       PRES   REMARKS
GERALDTON      CLEAR     55  23  28 SW3       30.10F
THUNDER BAY    CLEAR     52  25  35 S8        30.15F
SIOUX LOOKOUT  PTCLDY    68  39  34 SW6       30.02F
TORONTO        CLEAR     46  21  36 N15G23    30.25R
BIG TROUT LK   MOCLDY    55  30  38 S2        29.91F
PICKLE LAKE    MOCLDY    64  34  32 S6        29.97F
DRYDEN         CLEAR     70  37  30 SW10      30.03F
KENORA         MOCLDY    70  39  32 SW10      30.05S
$$
                *** MANITOBA***

CITY           SKY/WX    TMP DP  RH WIND       PRES   REMARKS
BRANDON        PTSUNNY   75  34  22 S14       30.06F
DAUPHIN        SUNNY     73  34  23 W12G17    30.01S
ISLAND LAKE    MOSUNNY   66  36  32 N10       29.90R
PILOT MOUND      N/A     72  32  23 S14         N/A
THE PAS        PTSUNNY   75  32  20 NW3       29.92R
THOMPSON       LGT RAIN  66  43  42 NE9       29.90F
WINNIPEG       PTSUNNY   75  37  25 SW9       30.05S
LYNN LAKE      PTSUNNY   68  39  34 NE12G17   29.95R
CHURCHILL      CLOUDY    34  32  93 N15       30.06R WCI  24
GILLAM         PTSUNNY   45  37  76 NE20      29.94R
$$
                ***SASKATCHEWAN***

CITY           SKY/WX    TMP DP  RH WIND       PRES   REMARKS
ESTEVAN        MOSUNNY   73  34  23 S10       30.05F
KINDERSLEY     MOSUNNY   77  23  13 SE8       30.00R
LLOYDMINSTER   MOSUNNY   77  23  13 CALM      29.99
PRINCE ALBERT  MOSUNNY   77  32  19 W8        29.97F
REGINA         MOSUNNY   70  39  32 SE7       30.03S
YORKTON        SUNNY     75  30  19 S10       30.03F



USA.gov is the U.S. government's official web portal to all federal, state and local government web resources and services.